Location: Zilina
(0.0000°N, 18.7333°E)
Time: 03:20:17
(UTC+02:00)

SPELTRA - Pass Details

Date: 19 February 2019
Orbit: 553 x 26581 km, 7.8° (Epoch: 19 October)

Event Time Altitude Azimuth Distance (km) Brightness Sun altitude
Rises 19:55:55 0° 270° (W) 6,268 8.8 -28.6°
Reaches altitude 10° 20:01:48 10° 276° (W) 3,562 7.2 -30.1°
Enters shadow 20:07:06 36° 313° (NW) 1,197 4.1 -31.4°
